Piedras Negras, Mexico

8:44 AM CDT on July 23, 2017 (GMT -0500)
Piedras Negras International

Weather History for MMPG - August, 2013

Change the Weather History Date:

Saturday, August 31, 2013

  Actual Average Record
Temperature  
Mean Temperature 89 °F -  
Max Temperature 104 °F 93 °F 112 °F (2012)
Min Temperature 74 °F 74 °F 46 °F (2004)
Cooling Degree Days 24    
Growing Degree Days 39 (Base 50)    
Moisture  
Dew Point 67 °F    
Average Humidity 45    
Maximum Humidity 78    
Minimum Humidity 25    
Precipitation  
Precipitation 0.00 in - - ()
Sea Level Pressure  
Sea Level Pressure 29.90 in    
Wind  
Wind Speed 3 mph ()    
Max Wind Speed 7 mph    
Max Gust Speed -    
Visibility 11.3 miles    
Events      
Averages and records for this station are not official NWS values.
T = Trace of Precipitation, MM = Missing Value Source: Averaged Metar Reports

Daily Weather History Graph

Daily Weather History Graph

Search for Another Location

Airport or City:

Trip Planner

Search our weather history database for the weather conditions in past years. The results will help you decide how hot, cold, wet, or windy it might be!

Date:

Astronomy

Aug. 31, 2013 Rise Set
Actual Time 7:19 AM CDT 8:04 PM CDT
Civil Twilight 6:55 AM CDT 8:28 PM CDT
Nautical Twilight 6:27 AM CDT 8:56 PM CDT
Astronomical Twilight 5:58 AM CDT 9:25 PM CDT
Moon 3:03 AM CDT (8/31) 4:51 PM CDT (8/31)
Length of Visible Light 13h 32m
Length of Day
12h 44m
Waning Crescent, 21% of the Moon is Illuminated
Aug 31
Waning Crescent
Sep 5
New
Sep 12
First Quarter
Sep 19
Full
Sep 26
Last Quarter

Hourly Weather History & Observations

Time (CDT) Temp. Heat Index Dew Point Humidity Pressure Visibility Wind Dir Wind Speed Gust Speed Precip Events Conditions
12:55 AM 85 °F - 65 °F 42% 29.91 in 12 mi SSE 4.5 mph - -  
3:50 AM 81 °F - 67 °F 53% 29.91 in 12 mi South 2.2 mph - -  
6:50 AM 77 °F - 67 °F 65% 29.93 in 13 mi NE 2.2 mph - -  
7:40 AM 75.2 °F - 68.0 °F 78% 29.95 in 10.0 mi Calm Calm - N/A   Clear
8:40 AM 82.4 °F 85.4 °F 68.0 °F 62% 29.96 in 10.0 mi Calm Calm - N/A   Clear
9:40 AM 86.0 °F 89.4 °F 68.0 °F 55% 29.98 in 10.0 mi Calm Calm - N/A   Clear
9:50 AM 83 °F - 72 °F 63% 29.96 in 14 mi SE 2.2 mph - -  
10:40 AM 87.8 °F 92.6 °F 69.8 °F 55% 29.98 in 10.0 mi ESE 5.8 mph - N/A   Clear
11:40 AM 91.4 °F 96.8 °F 69.8 °F 49% 29.98 in 10.0 mi Calm Calm - N/A   Clear
12:40 PM 95.0 °F 97.0 °F 64.4 °F 36% 29.95 in 10.0 mi SE 6.9 mph - N/A   Clear
12:50 PM 97 °F - 71 °F 34% 29.92 in 15 mi South 2.2 mph - -  
1:40 PM 95.0 °F 97.0 °F 64.4 °F 36% 29.93 in 10.0 mi Calm Calm - N/A   Scattered Clouds
2:40 PM 96.8 °F 100.7 °F 66.2 °F 37% 29.90 in 10.0 mi Calm Calm - N/A   Scattered Clouds
3:39 PM 101 °F - 69 °F 26% 29.83 in 14 mi East 4.5 mph - -   Scattered Clouds
3:40 PM 98.6 °F 102.8 °F 66.2 °F 35% 29.86 in 10.0 mi ESE 5.8 mph - N/A   Scattered Clouds
4:40 PM 98.6 °F 102.8 °F 66.2 °F 35% 29.85 in 10.0 mi ESE 5.8 mph - N/A   Scattered Clouds
5:40 PM 98.6 °F 102.8 °F 66.2 °F 35% 29.84 in 10.0 mi ESE 6.9 mph - N/A   Partly Cloudy
6:36 PM 101 °F - 68 °F 25% 29.75 in 14 mi East 4.5 mph - -   Partly Cloudy
6:40 PM 98.6 °F 102.8 °F 66.2 °F 35% 29.83 in 10.0 mi ESE 6.9 mph - N/A   Partly Cloudy
9:50 PM 91 °F - 66 °F 34% 29.81 in 12 mi East 2.2 mph - -